• In Portugal
  • List of Countries
  • For 7 days
  • Water Temperature
  • Satellite Maps
  • Weather Map
  • Weather Widgets
  • user-avatar
    Login

    Hourly Weather Kipungo

    Today, 17 December, Sunday

    Time Temperature Precipitation Wind Pressure Humidity
    00:00 +22°C° 0.2 mm 1 mps 653 mmHg 91%
    01:00 +21°C° 0 mm 1 mps 652 mmHg 89%
    02:00 +21°C° 0.4 mm 1 mps 652 mmHg 89%
    03:00 +21°C° 0.4 mm 1 mps 652 mmHg 89%
    04:00 +19°C° 0.4 mm 0 mps 652 mmHg 89%
    05:00 +22°C° 0.4 mm 1 mps 652 mmHg 87%
    06:00 +22°C° 0.4 mm 1 mps 653 mmHg 85%
    07:00 +22°C° 0.4 mm 1 mps 653 mmHg 84%
    08:00 +24°C° 0.9 mm 1 mps 654 mmHg 78%
    09:00 +25°C° 0.9 mm 1 mps 654 mmHg 73%
    10:00 +27°C° 0.9 mm 1 mps 655 mmHg 68%
    11:00 +27°C° 1.3 mm 1 mps 654 mmHg 67%
    12:00 +27°C° 1.3 mm 1 mps 654 mmHg 67%
    13:00 +27°C° 1.3 mm 1 mps 653 mmHg 66%
    14:00 +27°C° 0.9 mm 1 mps 653 mmHg 68%
    15:00 +27°C° 0.9 mm 1 mps 652 mmHg 69%
    16:00 +26°C° 0.9 mm 2 mps 652 mmHg 70%
    17:00 +25°C° 0.9 mm 1 mps 652 mmHg 75%
    18:00 +24°C° 0.9 mm 1 mps 652 mmHg 81%
    19:00 +23°C° 0.9 mm 1 mps 652 mmHg 86%
    20:00 +22°C° 0.3 mm 1 mps 653 mmHg 88%
    21:00 +22°C° 0.3 mm 1 mps 653 mmHg 89%
    22:00 +21°C° 0.3 mm 2 mps 654 mmHg 90%
    23:00 +20°C° 0.2 mm 2 mps 653 mmHg 91%

    Tomorrow, 18 December, Monday

    Time Temperature Precipitation Wind Pressure Humidity
    00:00 +20°C° 0.2 mm 2 mps 653 mmHg 92%
    01:00 +21°C° 0.2 mm 1 mps 653 mmHg 92%
    02:00 +21°C° 0.5 mm 1 mps 653 mmHg 93%
    03:00 +21°C° 0.5 mm 1 mps 652 mmHg 93%
    04:00 +21°C° 0.5 mm 1 mps 652 mmHg 93%
    05:00 +21°C° 0.7 mm 1 mps 652 mmHg 93%
    06:00 +21°C° 0.7 mm 1 mps 652 mmHg 93%
    07:00 +20°C° 0.7 mm 1 mps 653 mmHg 92%
    08:00 +21°C° 0.7 mm 1 mps 653 mmHg 91%
    09:00 +20°C° 0.7 mm 2 mps 653 mmHg 90%
    10:00 +20°C° 0.7 mm 2 mps 653 mmHg 88%
    11:00 +20°C° 0.6 mm 2 mps 653 mmHg 87%
    12:00 +21°C° 0.6 mm 2 mps 652 mmHg 86%
    13:00 +21°C° 0.6 mm 2 mps 652 mmHg 84%
    14:00 +21°C° 1.1 mm 2 mps 652 mmHg 85%
    15:00 +20°C° 1.1 mm 2 mps 651 mmHg 87%
    16:00 +20°C° 1.1 mm 2 mps 651 mmHg 88%
    17:00 +20°C° 0.7 mm 2 mps 651 mmHg 89%
    18:00 +21°C° 0.7 mm 1 mps 651 mmHg 91%
    19:00 +20°C° 0.7 mm 1 mps 652 mmHg 93%
    20:00 +20°C° 0.3 mm 1 mps 652 mmHg 93%
    21:00 +20°C° 0.3 mm 1 mps 652 mmHg 93%
    22:00 +20°C° 0.3 mm 1 mps 653 mmHg 94%
    23:00 +20°C° 0.2 mm 1 mps 652 mmHg 94%

    Day after tomorrow, 19 December, Tuesday

    Time Temperature Precipitation Wind Pressure Humidity
    00:00 +20°C° 0.2 mm 1 mps 652 mmHg 94%
    01:00 +20°C° 0.2 mm 1 mps 651 mmHg 94%
    02:00 +20°C° 0.5 mm 1 mps 651 mmHg 94%
    03:00 +20°C° 0.5 mm 1 mps 651 mmHg 95%
    04:00 +19°C° 0.5 mm 1 mps 651 mmHg 95%
    05:00 +20°C° 0.8 mm 1 mps 651 mmHg 95%
    06:00 +20°C° 0.8 mm 1 mps 652 mmHg 94%
    07:00 +18°C° 0.8 mm 0 mps 652 mmHg 94%
    08:00 +20°C° 0.6 mm 1 mps 652 mmHg 93%
    09:00 +20°C° 0.6 mm 1 mps 652 mmHg 91%
    10:00 +21°C° 0.6 mm 1 mps 653 mmHg 90%
    11:00 +21°C° 0.2 mm 1 mps 652 mmHg 88%
    12:00 +20°C° 0.2 mm 2 mps 652 mmHg 86%
    13:00 +20°C° 0.2 mm 2 mps 651 mmHg 84%
    14:00 +21°C° 0.1 mm 2 mps 651 mmHg 80%
    15:00 +23°C° 0.1 mm 2 mps 651 mmHg 76%
    16:00 +24°C° 0.1 mm 2 mps 651 mmHg 72%
    17:00 +23°C° 0.4 mm 2 mps 651 mmHg 77%
    18:00 +22°C° 0.4 mm 1 mps 651 mmHg 82%
    19:00 +21°C° 0.4 mm 1 mps 651 mmHg 87%
    20:00 +20°C° 0.2 mm 1 mps 652 mmHg 89%
    21:00 +20°C° 0.2 mm 1 mps 652 mmHg 91%
    22:00 +20°C° 0.2 mm 1 mps 653 mmHg 93%
    23:00 +20°C° 0.2 mm 1 mps 652 mmHg 94%

    20 December, Wednesday

    Time Temperature Precipitation Wind Pressure Humidity
    00:00 +20°C° 0.2 mm 1 mps 652 mmHg 94%
    01:00 +20°C° 0.2 mm 1 mps 651 mmHg 95%
    02:00 +20°C° 0.1 mm 1 mps 651 mmHg 95%
    03:00 +20°C° 0.1 mm 1 mps 651 mmHg 94%
    04:00 +19°C° 0.1 mm 1 mps 651 mmHg 94%
    05:00 +20°C° 0.1 mm 1 mps 651 mmHg 93%
    06:00 +18°C° 0.1 mm 0 mps 652 mmHg 92%
    07:00 +18°C° 0.1 mm 0 mps 652 mmHg 90%
    08:00 +21°C° 0 mm 1 mps 653 mmHg 84%
    09:00 +22°C° 0 mm 1 mps 653 mmHg 78%
    10:00 +23°C° 0 mm 1 mps 653 mmHg 72%
    11:00 +24°C° 0 mm 2 mps 653 mmHg 65%
    12:00 +26°C° 0 mm 2 mps 653 mmHg 59%
    13:00 +27°C° 0 mm 3 mps 653 mmHg 52%
    14:00 +27°C° 0.3 mm 3 mps 653 mmHg 56%
    15:00 +26°C° 0.3 mm 3 mps 652 mmHg 60%
    16:00 +26°C° 0.3 mm 3 mps 652 mmHg 64%
    17:00 +24°C° 0.5 mm 2 mps 652 mmHg 71%
    18:00 +23°C° 0.5 mm 2 mps 652 mmHg 77%
    19:00 +22°C° 0.5 mm 1 mps 652 mmHg 84%
    20:00 +21°C° 0.2 mm 1 mps 653 mmHg 85%
    21:00 +21°C° 0.2 mm 1 mps 653 mmHg 86%
    22:00 +21°C° 0.2 mm 1 mps 654 mmHg 87%
    23:00 +20°C° 0.3 mm 1 mps 653 mmHg 88%

    21 December, Thursday

    Time Temperature Precipitation Wind Pressure Humidity
    00:00 +20°C° 0.3 mm 1 mps 653 mmHg 89%
    01:00 +20°C° 0.3 mm 1 mps 653 mmHg 89%
    02:00 +20°C° 0.1 mm 1 mps 652 mmHg 91%
    03:00 +19°C° 0.1 mm 1 mps 652 mmHg 92%
    04:00 +19°C° 0.1 mm 1 mps 652 mmHg 93%
    05:00 +20°C° 0 mm 1 mps 652 mmHg 91%
    06:00 +20°C° 0 mm 1 mps 653 mmHg 88%
    07:00 +21°C° 0 mm 1 mps 653 mmHg 86%
    08:00 +23°C° 0 mm 1 mps 654 mmHg 75%
    09:00 +25°C° 0 mm 1 mps 655 mmHg 65%
    10:00 +27°C° 0 mm 1 mps 655 mmHg 55%
    11:00 +28°C° 0.2 mm 2 mps 655 mmHg 53%
    12:00 +28°C° 0.2 mm 2 mps 654 mmHg 51%
    13:00 +29°C° 0.2 mm 2 mps 654 mmHg 49%
    14:00 +27°C° 0.6 mm 2 mps 653 mmHg 56%
    15:00 +26°C° 0.6 mm 2 mps 652 mmHg 63%
    16:00 +24°C° 0.6 mm 2 mps 652 mmHg 70%
    17:00 +24°C° 0.3 mm 2 mps 652 mmHg 74%
    18:00 +23°C° 0.3 mm 2 mps 652 mmHg 77%
    19:00 +22°C° 0.3 mm 1 mps 653 mmHg 81%
    20:00 +22°C° 0 mm 1 mps 653 mmHg 82%
    21:00 +21°C° 0 mm 1 mps 653 mmHg 84%
    22:00 +21°C° 0 mm 1 mps 654 mmHg 85%
    23:00 +20°C° 0 mm 1 mps 653 mmHg 87%

    22 December, Friday

    Time Temperature Precipitation Wind Pressure Humidity
    00:00 +20°C° 0 mm 1 mps 653 mmHg 89%
    01:00 +18°C° 0 mm 2 mps 652 mmHg 91%
    02:00 +19°C° 0 mm 1 mps 652 mmHg 91%
    03:00 +19°C° 0 mm 1 mps 652 mmHg 92%
    04:00 +19°C° 0 mm 1 mps 652 mmHg 93%
    05:00 +19°C° 0 mm 1 mps 653 mmHg 89%
    06:00 +20°C° 0 mm 1 mps 653 mmHg 85%
    07:00 +20°C° 0 mm 1 mps 654 mmHg 82%
    08:00 +23°C° 0 mm 1 mps 654 mmHg 70%
    09:00 +25°C° 0 mm 1 mps 655 mmHg 58%
    10:00 +28°C° 0 mm 1 mps 655 mmHg 47%
    11:00 +28°C° 0.1 mm 2 mps 655 mmHg 47%
    12:00 +28°C° 0.1 mm 2 mps 654 mmHg 47%
    13:00 +28°C° 0.1 mm 3 mps 654 mmHg 47%
    14:00 +28°C° 0.1 mm 3 mps 653 mmHg 47%
    15:00 +28°C° 0.1 mm 3 mps 653 mmHg 46%
    16:00 +28°C° 0.1 mm 3 mps 652 mmHg 45%
    17:00 +26°C° 0 mm 3 mps 652 mmHg 49%
    18:00 +25°C° 0 mm 2 mps 652 mmHg 53%
    19:00 +23°C° 0 mm 2 mps 652 mmHg 57%
    20:00 +21°C° 0 mm 2 mps 652 mmHg 60%
    21:00 +22°C° 0 mm 1 mps 653 mmHg 63%
    22:00 +21°C° 0 mm 1 mps 653 mmHg 65%
    23:00 +20°C° 0 mm 1 mps 652 mmHg 68%
    Show more